sat.trackr.live / text

‹ back to catalog

STARLINK-6108

NORAD 57155 · 2023-090BG

PAYLOAD ACTIVE UNKNOWN

§ Identity

Operator
Country
US
Launch date
2023-06-23
Launch site
AFETR
Launch vehicle
Mass (kg)
RCS (m²)

Purposes: comms

External: N2YO · Heavens-Above · Gunter

§ Orbital elements

Epoch: 2026-05-25T03:51:50.309280Z

Period
94.27 min
Inclination
43.0007°
Eccentricity
0.0001164
Mean motion
15.27574396 rev/d
Perigee alt
482.3 km
Apogee alt
483.9 km
Semi-major
6,861.2 km
B*
9.7598e-6
RAAN
191.8927°
Arg perigee
276.1833°
Mean anomaly
83.8886°
Rev number
16,223

§ Raw data

STARLINK-61081 57155U 23090BG  26145.16099895  .00000007  00000+0  97598-5 0  99912 57155  43.0007 191.8927 0001164 276.1833  83.8886 15.27574396162232

JSON: /api/v1/satellites/57155 · /tle

For live sub-satellite position, see the globe view (requires WebGL).

§ Visibility from observer

Set your observer location to see the next 7 days of passes ≥ 10°. The values pass through the URL so the page stays shareable.

No JS? Fill the form by hand. The geolocation button needs JavaScript.